User: anonymous   Login
Location: Newark
(48.3983°N, 16.0611°E)
Time: 23:45:17
(UTC+00:00)
Language:

ISS - Orbit

View from above orbital plane
View from above orbital plane
View from above satellite
View from above satellite

Ground track
Ground track

The orbit data is extracted from the following two-line orbital elements,

1 25544U 98067A   20052.00367372  .00016717  00000-0  10270-3 0  9026
2 25544  51.6379 208.2869 0005030 299.3925  60.6722 15.49184020 13848
Epoch (UTC): 21 February 2020 00:05:17
Eccentricity: 0.0005030
inclination: 51.6379°
perigee height: 416 km
apogee height: 422 km
right ascension of ascending node: 208.2869°
argument of perigee: 299.3925°
revolutions per day: 15.49184020
mean anomaly at epoch: 60.6722°
orbit number at epoch: 1384

The dashed part of the orbit path shows where the satellite is in the earth's shadow,  

DLR